{"data":{"norad_id":57083,"intl_designator":"2023-088AM","name":"STARLINK-6253","alt_names":[],"object_type":"PAYLOAD","status":"ACTIVE","operator":null,"country":"US","launch_date":"2023-06-22","launch_site_code":"AFWTR","launch_vehicle":null,"mission":null,"orbit_class":"UNKNOWN","rcs_meters":null,"size_class":null,"mass_kg":null,"dimensions":null,"purposes":["comms"],"wikipedia_slug":null,"has_3d_model":false,"image_url":null,"decayed_at":null,"tle_current":{"epoch":"2026-09-20T04:09:54.582624Z","epoch_age_seconds":149161,"freshness":"FRESH","line1":"1 57083U 23088AM  26263.17354841  .00000331  00000+0  21545-4 0  9993","line2":"2 57083  43.0031  77.8163 0001437 255.9419 104.1273 15.27578911180247","mean_motion":15.27578911,"eccentricity":0.0001437,"inclination_deg":43.0031,"raan_deg":77.8163,"arg_perigee_deg":255.9419,"mean_anomaly_deg":104.1273,"bstar":2.1545e-5,"rev_number":18024,"period_min":94.266815915738,"perigee_km":482.06640398877,"apogee_km":484.03830980994,"semimajor_km":6861.1893568994,"source":"CELESTRAK","updated_at":"2026-09-21T09:00:33.555277Z"}}}